Weather History for China Lake, CA

Change the Weather History Date:

Saturday, July 5, 2014

  Actual Average Record
Temperature  
Mean Temperature 88 °F -  
Max Temperature 105 °F 98 °F 116 °F (2007)
Min Temperature 75 °F 69 °F 60 °F (2000)
Cooling Degree Days 24    
Growing Degree Days 38 (Base 50)    
Moisture  
Dew Point 44 °F    
Average Humidity 21    
Maximum Humidity 31    
Minimum Humidity 12    
Precipitation  
Precipitation 0.00 in - - ()
Sea Level Pressure  
Sea Level Pressure 29.92 in    
Wind  
Wind Speed 9 mph (SE)    
Max Wind Speed 32 mph    
Max Gust Speed 41 mph    
Visibility 10 miles    
Events      
Averages and records for this station are not official NWS values.
T = Trace of Precipitation, MM = Missing Value Source: NWS Daily Summary

Daily Weather History Graph

Daily Weather History Graph

Search for Another Location

Airport:

Trip Planner

Search our weather history database for the weather conditions in past years. The results will help you decide how hot, cold, wet, or windy it might be!

Date:

Astronomy

Jul. 05, 2014 Rise Set
Actual Time 5:40 AM PDT 8:10 PM PDT
Civil Twilight 5:10 AM PDT 8:39 PM PDT
Nautical Twilight 4:33 AM PDT 9:16 PM PDT
Astronomical Twilight 3:53 AM PDT 9:57 PM PDT
Moon 1:22 PM PDT (7/5) 12:20 AM PDT (7/5)
Length of Visible Light 15h 29m
Length of Day
14h 29m
First Quarter, 53% of the Moon is Illuminated
Jul 5
First Quarter
Jul 12
Full
Jul 18
Last Quarter
Jul 26
New
Aug 3
First Quarter

Hourly Weather History & Observations

Time (PDT) Temp. Heat Index Dew Point Humidity Pressure Visibility Wind Dir Wind Speed Gust Speed Precip Events Conditions
12:56 AM 84.9 °F - 45.0 °F 25% 29.88 in 10.0 mi South 10.4 mph - N/A   Unknown
1:56 AM 84.9 °F - 45.0 °F 25% 29.89 in 10.0 mi South 11.5 mph - N/A   Unknown
2:56 AM 82.0 °F - 44.1 °F 26% 29.91 in 10.0 mi South 11.5 mph - N/A   Unknown
3:56 AM 82.0 °F - 41.0 °F 23% 29.91 in 10.0 mi SSE 9.2 mph - N/A   Unknown
4:56 AM 77.0 °F - 42.1 °F 29% 29.93 in 10.0 mi South 8.1 mph - N/A   Unknown
5:56 AM 75.0 °F - 42.1 °F 31% 29.96 in 10.0 mi South 5.8 mph - N/A   Unknown
6:56 AM 79.0 °F - 43.0 °F 28% 29.97 in 10.0 mi WSW 5.8 mph - N/A   Unknown
7:56 AM 84.0 °F - 43.0 °F 24% 29.99 in 10.0 mi SSE 3.5 mph - N/A   Unknown
8:56 AM 88.0 °F - 41.0 °F 19% 30.00 in 10.0 mi Variable 3.5 mph - N/A   Unknown
9:56 AM 91.9 °F - 41.0 °F 17% 29.99 in 10.0 mi Calm Calm - N/A   Unknown
10:56 AM 93.9 °F - 39.0 °F 15% 29.99 in 10.0 mi Variable 3.5 mph - N/A   Unknown
11:56 AM 98.1 °F - 39.0 °F 13% 29.97 in 10.0 mi ESE 9.2 mph - N/A   Unknown
12:56 PM 100.9 °F - 39.9 °F 12% 29.95 in 10.0 mi South 9.2 mph - N/A   Unknown
1:56 PM 100.9 °F - 41.0 °F 13% 29.92 in 10.0 mi SSW 6.9 mph - N/A   Unknown
2:56 PM 102.9 °F - 43.0 °F 13% 29.89 in 10.0 mi SE 10.4 mph 16.1 mph N/A   Unknown
3:56 PM 102.9 °F - 43.0 °F 13% 29.88 in 10.0 mi East 8.1 mph - N/A   Unknown
4:56 PM 102.0 °F - 42.1 °F 13% 29.87 in 10.0 mi East 8.1 mph - N/A   Unknown
5:56 PM 95.0 °F 93.4 °F 55.9 °F 27% 29.89 in 10.0 mi East 32.2 mph 41.4 mph 0.00 in   Unknown
6:56 PM 95.0 °F 93.0 °F 55.0 °F 26% 29.88 in 10.0 mi ESE 16.1 mph 26.5 mph N/A   Unknown
7:56 PM 93.9 °F - 52.0 °F 24% 29.88 in 10.0 mi East 12.7 mph 23.0 mph N/A   Unknown
8:56 PM 93.0 °F - 50.0 °F 23% 29.89 in 10.0 mi ENE 16.1 mph - N/A   Unknown
9:56 PM 91.9 °F - 46.9 °F 21% 29.89 in 10.0 mi East 10.4 mph - N/A   Unknown
10:56 PM 90.0 °F - 46.0 °F 22% 29.90 in 10.0 mi Calm Calm - N/A   Unknown
11:56 PM 86.0 °F - 45.0 °F 24% 29.91 in 10.0 mi NW 5.8 mph - N/A   Unknown